Regional Weather Roundup
Issued by NWS

Home | Current Version | Previous Version | Graphics & Text | Print | Product List | Glossary On
Versions: 1 2 3 4 5 6 7 8 9 10 11 12 13 14 15 16 17 18 19 20 21 22 23 24 25 26 27 28 29 30 31 32 33 34 35 36 37 38 39 40 41 42 43 44 45 46 47 48
000
ASUS45 KTFX 300610
RWRMT
MONTANA REGIONAL WEATHER ROUNDUP
NATIONAL WEATHER SERVICE GREAT FALLS MT
1200 AM MDT THU JUL 30 2015

NOTE: "FAIR" INDICATES FEW OR NO CLOUDS BELOW 12000 FEET WITH NO
SIGNIFICANT WEATHER AND/OR OBSTRUCTIONS TO VISIBILITY.

MTZ001>007-043-300700-
WEST OF THE DIVIDE

CITY           SKY/WX    TMP DP  RH WIND       PRES   REMARKS
KALISPELL      CLEAR     56  38  50 N5        30.18R
MISSOULA       CLEAR     61  44  53 CALM      30.22R
BUTTE          CLEAR     54  40  59 SE8       30.35S
MULLAN PASS    CLEAR     59  28  30 NW3       30.36S
DEER LODGE       N/A     54  41  62 CALM      30.34R
EUREKA           N/A     59  37  44 CALM      30.17R
HAMILTON         N/A     57  43  58 E5        30.24R
LIBBY            N/A     61  37  41 CALM      30.18R
PLAINS           N/A     60  42  51 CALM      30.18R
RONAN            N/A     56  46  69 CALM      30.23R
$$

MTZ008-052>055-300700-
SOUTHWEST MONTANA

CITY           SKY/WX    TMP DP  RH WIND       PRES   REMARKS
BOZEMAN        CLEAR     55  46  71 S5        30.28R
DILLON         CLEAR     57  41  55 SW3       30.31R
W YELLOWSTONE  CLEAR     48  39  71 CALM      30.43R
THREE FORKS      N/A     55  55 100 CALM      30.24R
$$

MTZ009-010-012-014-046-048-049-054-300700-
EAST SLOPES AND CENTRAL MONTANA

CITY           SKY/WX    TMP DP  RH WIND       PRES   REMARKS
CUT BANK       MOCLDY    53  39  59 W3        30.21R
GREAT FALLS    CLEAR     59  44  57 S8        30.20R
HELENA         CLEAR     64  40  41 CALM      30.24S
CONRAD           N/A     54  44  68 W1        30.20S
$$

MTZ011-013-016-021-045-047-050-051-300700-
NORTH CENTRAL MONTANA

CITY           SKY/WX    TMP DP  RH WIND       PRES   REMARKS
HAVRE          CLEAR     61  50  67 SE3       30.14R
LEWISTOWN      CLEAR     55  44  66 SE6       30.23S
CHINOOK          N/A     63  50  63 W3        30.13R
FORT BENTON      N/A     66  43  42 CALM      30.18R
$$

MTZ017>020-022>027-061-062-300700-
NORTHEAST MONTANA

CITY           SKY/WX    TMP DP  RH WIND       PRES   REMARKS
GLASGOW        PTCLDY    65  48  54 NW21G28   30.12R
JORDAN           N/A     59  47  64 S5        30.13F
SIDNEY         CLEAR     57  50  77 CALM      30.09F
WOLF POINT     CLEAR     56  47  71 NW5       30.08F
MALTA            N/A     67  49  52 MISG      30.07R
PLENTYWOOD       N/A     59  52  77 N8        30.11R
POPLAR           N/A     61  52  72 E3        30.09R
SCOBEY           N/A     58  48  69 NW6       30.11R
$$

MTZ028>42-056>058-300700-
SOUTHCENTRAL AND SOUTHEAST MONTANA

CITY           SKY/WX    TMP DP  RH WIND       PRES   REMARKS
BAKER          CLEAR     55  42  61 S7        30.19R
BILLINGS       CLEAR     70  38  31 S7        30.23S
LIVINGSTON     CLEAR     60  41  49 NW8       30.28R
MILES CITY     CLEAR     64  44  48 W3        30.16R
FORSYTH          N/A     63  45  51 CALM      30.17S
LAUREL           N/A     60  35  39 W2        30.19S
ROUNDUP          N/A     61  41  47 CALM      30.11S
$$

REGIONAL REPORTS...DAKOTAS

CITY           SKY/WX    TMP DP  RH WIND       PRES   REMARKS
WILLISTON      PTCLDY    59  52  77 SW5       30.08S
MINOT          CLEAR     60  52  74 SW9       30.03F
DICKINSON      CLEAR     53  46  77 S5        30.13S
BEACH          FAIR      54  48  82 S3        30.16S
BISMARCK       CLEAR     55  50  83 CALM      30.10R
GRAND FORKS    CLEAR     64  57  78 W8        29.92S
FARGO          CLEAR     66  57  72 W12       29.97R
BUFFALO SD       N/A     62  39  42 CALM      30.13R
RAPID CITY     CLEAR     57  49  74 NW6       30.21R
$$

REGIONAL REPORTS...WYOMING/IDAHO/WASHINGTON

CITY           SKY/WX    TMP DP  RH WIND       PRES   REMARKS
GILLETTE       CLEAR     52  38  58 S5        30.27R
SHERIDAN       CLEAR     55  44  66 S5        30.26R
BUFFALO WY     CLEAR     59  38  45 W9        30.32S
CODY           CLEAR     57  32  38 CALM      30.33R
YELLOWSTONE LA   N/A     42  35  76 VRB3      30.52S
IDAHO FALLS    CLEAR     53  42  66 N5        30.29S
SALMON         CLEAR     57  46  67 CALM      30.25R
BOISE          CLEAR     73  37  27 CALM      30.15F
SPOKANE        CLEAR     74  35  24 CALM      30.14S
$$

REGIONAL REPORTS...ALBERTA

CITY           SKY/WX    TMP DP  RH WIND       PRES   REMARKS
EDMONTON       PTCLDY    54  45  71 W7        30.10S
CALGARY        PTCLDY    55  46  71 NW5       30.21R
LETHBRIDGE     PTCLDY    54  48  82 SW5       30.18S
MEDICINE HAT   CLEAR     57  48  72 S5        30.13R
WATERTON GATE    N/A     46  41  81 E3          N/A
CARDSTON         N/A     54  41  62 S3          N/A
MILK RIVER       N/A     50  45  81 NW6         N/A
ONEFOUR          N/A     57  46  67 NW7         N/A
$$

REGIONAL REPORTS...SASKATCHEWAN

CITY           SKY/WX    TMP DP  RH WIND       PRES   REMARKS
SWIFT CURRENT  CLEAR     54  50  87 SW7       30.11R
REGINA         CLOUDY    59  55  88 W7        30.05F
SASKATOON      MOCLDY    55  50  82 W8        30.03R
CYPRESS HILLS    N/A     55  43  62 NW2         N/A
VAL MARIE        N/A     61  52  72 NE12        N/A
ROCKGLEN         N/A     55  50  82 N5          N/A
$$



USA.gov is the U.S. government's official web portal to all federal, state and local government web resources and services.